sat.trackr.live / text

‹ back to catalog

GONETS-M 14

NORAD 44905 · 2019-096A

PAYLOAD ACTIVE UNKNOWN

§ Identity

Operator
Country
CIS
Launch date
2019-12-26
Launch site
PLMSC
Launch vehicle
Mass (kg)
RCS (m²)

External: N2YO · Heavens-Above · Gunter

§ Orbital elements

Epoch: 2026-09-20T04:43:32.517696Z

Period
115.86 min
Inclination
82.5270°
Eccentricity
0.0012552
Mean motion
12.42872693 rev/d
Perigee alt
1,484.6 km
Apogee alt
1,504.3 km
Semi-major
7,872.6 km
B*
3.0914e-4
RAAN
25.7211°
Arg perigee
307.4391°
Mean anomaly
52.5546°
Rev number
30,548

§ Raw data

GONETS-M 141 44905U 19096A   26263.19690414  .00000053  00000+0  30914-3 0  99972 44905  82.5270  25.7211 0012552 307.4391  52.5546 12.42872693305489

JSON: /api/v1/satellites/44905 · /tle

For live sub-satellite position, see the globe view (requires WebGL).

§ Visibility from observer

Set your observer location to see the next 7 days of passes ≥ 10°. The values pass through the URL so the page stays shareable.

No JS? Fill the form by hand. The geolocation button needs JavaScript.

§ Radio — SatNOGS DB

ModeDescriptionDownlinkUplink
FM Telemetry 265.059 MHz
FM UHF Unknown 387.462 MHz
FM UHF Unknown 388.687 MHz

3 transmitters · refreshed weekly from db.satnogs.org